Temperature
20 19 19 20 26 29 29 29 29 28 27 26 26 26 26 26 25 24 21 20 20 19 19 19 19 19 19 19 19 19 19 19 19 19 19 19 19 19 19 19 19 19 19 19 19 19 19 19 19
20 20 20 24 29 29 28 29 28 27 27 26 26 26 26 24 22 21 20 20 20 19 19 19 19 19 19 19 19 19 19 19 19 19 19 19 19 19 19 19 19 19 19 19 19 19 19 18 18
20 20 24 29 30 29 28 29 28 27 26 26 26 26 25 23 22 21 20 20 20 19 19 19 19 19 19 19 19 19 19 19 19 19 19 19 19 19 19 19 19 19 19 19 19 19 18 18 18
20 23 26 30 30 29 29 29 28 28 27 26 26 25 23 21 21 21 20 20 20 19 19 19 19 19 19 19 19 19 19 19 19 19 19 19 19 19 19 19 19 19 19 19 19 18 18 18 18
22 27 30 31 30 30 30 29 28 28 28 27 26 26 23 21 21 20 20 20 20 20 19 19 19 19 19 19 19 19 19 19 19 19 19 19 19 19 19 19 19 19 18 18 18 18 18 18 18
27 30 31 30 30 30 30 29 29 28 27 26 26 26 23 21 20 20 20 20 20 20 19 19 20 19 19 19 19 19 19 19 19 19 19 19 19 19 19 19 19 19 18 18 18 18 18 18 18
29 31 31 31 30 30 29 29 29 29 28 27 26 26 23 21 21 20 20 20 20 20 19 19 19 19 19 19 19 19 19 19 19 19 19 19 19 19 19 19 19 19 18 18 18 18 18 18 18
28 32 32 31 31 30 29 28 28 28 27 26 26 26 24 21 20 20 20 20 20 20 19 19 19 19 19 19 19 19 19 19 19 19 19 19 19 19 19 18 18 19 18 18 18 18 18 18 18
28 32 31 31 31 30 30 29 28 27 27 25 25 25 23 21 20 20 20 20 20 19 19 19 19 19 19 19 19 19 19 19 19 19 19 18 18 18 18 18 18 18 18 18 18 18 18 18 18
30 32 31 31 31 31 30 29 28 28 27 26 24 23 22 21 21 21 21 20 20 20 19 19 19 19 19 19 19 18 18 18 18 18 18 18 18 18 18 18 18 18 18 18 18 18 18 18 18
31 31 32 31 31 30 30 29 28 29 28 27 25 23 22 22 22 22 21 21 20 20 19 19 19 19 19 19 19 18 18 18 18 18 18 18 18 18 18 18 18 18 18 18 18 18 18 18 18
31 31 31 31 30 30 30 29 29 28 27 26 25 23 22 22 22 22 22 21 20 20 19 19 19 19 19 19 19 18 18 18 18 18 18 18 18 18 18 18 18 18 18 18 18 18 18 18 18
31 31 31 30 30 30 29 29 28 27 26 25 24 23 23 23 22 22 21 21 20 20 19 19 19 19 19 19 19 19 18 18 18 18 18 18 18 18 18 18 18 18 18 18 18 18 18 18 18
31 31 31 31 31 30 30 29 28 27 25 25 24 23 23 22 22 22 21 21 20 20 19 19 19 19 19 19 19 18 18 18 18 18 18 18 18 18 18 18 18 18 18 18 18 18 18 18 18
31 32 32 31 31 30 30 30 29 26 25 25 24 23 23 22 22 21 21 21 20 19 19 19 19 19 19 19 19 19 18 18 18 18 18 18 18 18 18 18 18 18 18 18 18 18 18 18 18
32 32 32 32 31 30 31 30 29 26 26 25 24 23 23 22 22 21 21 20 20 19 19 19 19 19 19 19 19 19 19 18 18 18 18 18 18 18 18 18 18 18 18 18 18 18 18 18 18
32 32 32 32 31 31 31 30 29 27 27 26 25 24 23 22 22 21 21 20 20 19 19 19 19 19 19 19 19 18 18 18 18 18 18 18 18 18 18 18 18 18 18 18 18 18 18 18 18
32 32 32 32 32 31 31 31 30 27 27 27 25 24 23 23 22 21 21 20 20 19 19 19 19 19 19 19 19 18 18 18 18 18 18 18 18 18 18 18 18 18 18 18 18 18 18 18 18
32 32 32 32 32 31 31 31 30 28 28 27 26 25 24 23 22 21 21 20 20 20 19 19 19 19 19 19 18 18 18 18 18 18 18 18 18 18 18 18 18 18 18 18 18 18 18 18 18
32 32 32 32 31 31 31 31 31 29 28 27 27 25 25 24 23 21 21 20 20 20 20 19 19 19 19 19 19 18 18 18 18 18 18 18 18 18 18 18 18 18 18 18 18 18 17 18 18
32 32 32 31 31 31 31 31 30 30 28 27 27 26 25 24 23 22 21 21 20 20 20 19 19 19 19 19 18 18 18 18 18 18 18 18 18 18 18 18 18 18 18 18 18 18 17 18 18
31 32 32 31 31 32 31 31 31 30 29 29 28 27 26 25 24 23 21 21 21 20 20 20 19 19 19 19 19 18 18 18 18 18 18 18 18 18 18 18 18 18 18 17 17 17 17 17 17
31 31 31 31 31 31 31 31 32 31 30 30 29 27 26 25 24 23 22 21 21 20 20 19 19 19 19 19 19 19 18 18 18 18 18 18 18 18 17 17 17 17 17 17 17 17 17 17 17
31 31 31 31 32 30 31 31 31 32 31 31 30 28 26 25 24 23 22 21 20 20 20 20 19 19 19 19 19 19 19 18 18 18 18 18 18 17 17 17 17 17 17 17 17 17 17 17 17
31 31 30 30 30 31 31 31 31 31 31 31 30 28 26 25 24 23 22 21 20 20 20 20 20 19 19 19 19 19 19 18 18 18 18 18 18 17 17 17 17 17 17 17 17 17 17 17 17
31 31 30 30 30 31 30 30 32 31 30 29 29 28 26 25 24 23 22 21 21 20 20 20 19 19 19 19 19 19 19 18 18 18 18 17 17 17 17 17 17 17 17 17 17 17 17 17 17
31 31 32 31 31 30 31 31 31 31 30 29 29 27 27 25 24 23 22 21 21 20 20 20 19 19 19 19 19 19 19 18 18 18 18 17 17 17 17 17 17 17 17 17 17 17 17 16 16
31 31 31 31 29 29 30 31 31 30 30 30 29 28 26 25 24 23 22 22 21 20 20 19 19 19 19 19 18 18 18 18 18 18 18 18 18 18 17 17 17 17 17 17 17 16 16 16 16
30 30 30 30 30 29 30 31 31 30 30 29 29 27 26 25 24 23 22 22 21 20 20 19 19 19 19 18 18 18 18 18 18 18 18 18 18 17 17 17 17 17 16 16 17 16 16 16 16
30 30 30 29 29 29 30 30 31 30 30 29 28 27 25 24 24 23 22 21 21 20 20 19 19 19 18 18 18 18 18 18 18 17 17 17 17 17 17 17 17 17 16 16 16 16 16 16 16
Wind_Speed
12 9 5 4 3 5 12 10 9 8 7 7 7 6 8 9 7 6 6 7 8 9 10 11 13 12 12 13 14 14 15 15 15 16 16 16 16 15 14 14 13 13 13 13 12 12 12 12 11
7 5 5 4 2 9 12 10 10 10 7 5 6 7 8 9 8 7 7 7 8 10 10 12 15 13 12 13 13 14 14 15 15 15 16 15 15 15 14 13 13 13 12 12 12 12 11 11 10
5 5 4 1 9 11 11 10 10 9 7 5 6 7 6 7 7 6 7 8 9 10 10 13 13 12 12 12 13 13 14 14 15 15 15 14 14 14 13 12 12 12 12 11 11 11 10 10 9
4 4 3 5 13 12 10 9 7 7 8 7 6 7 7 7 5 7 10 9 9 10 10 13 12 12 12 11 12 13 13 14 14 14 14 13 13 13 13 12 12 11 11 10 9 9 9 8 8
4 3 3 10 13 11 9 8 7 7 7 7 7 9 8 7 9 11 10 9 10 9 10 13 12 12 12 11 12 12 13 13 13 13 13 13 12 12 12 11 11 11 10 9 8 8 8 7 7
3 1 6 11 12 10 8 6 6 8 8 7 7 8 7 7 9 9 9 8 9 9 10 12 12 11 11 12 11 12 12 12 12 12 11 11 11 10 10 9 10 10 9 9 8 7 7 7 6
3 4 8 10 10 10 8 6 6 7 8 7 5 7 7 8 9 9 8 8 8 8 8 9 11 11 11 11 10 10 11 11 11 11 10 10 9 8 8 8 8 8 8 8 8 7 6 6 7
3 1 8 10 9 10 7 6 5 6 7 6 4 5 7 9 9 9 9 8 8 7 7 8 8 8 9 11 10 10 10 10 10 10 9 8 8 8 8 8 7 7 8 8 8 7 7 6 7
3 2 9 9 8 8 6 5 5 5 7 6 6 7 9 12 11 10 9 8 8 7 6 6 7 7 7 8 10 10 10 9 9 9 9 7 6 6 7 6 6 7 7 7 7 8 8 8 9
1 6 9 7 6 6 5 4 4 4 6 6 7 9 11 12 11 10 10 9 8 7 6 5 5 5 6 6 7 6 7 7 6 6 6 5 4 3 4 6 6 7 7 8 9 8 10 10 7
2 6 6 5 5 4 5 5 3 3 4 5 7 10 11 11 10 9 9 8 8 7 6 6 5 5 5 4 4 4 4 5 5 5 4 4 3 3 3 3 5 6 7 6 8 8 6 5 3
2 4 3 4 4 3 4 4 4 3 5 5 8 11 11 10 9 8 8 8 7 6 6 5 5 4 3 3 3 4 4 4 3 4 4 3 2 1 2 1 2 2 3 2 3 3 4 4 4
1 3 3 3 3 4 4 4 4 4 5 7 10 11 10 9 9 8 7 7 7 6 6 5 5 4 4 3 2 3 3 3 4 4 3 3 2 1 1 1 1 1 1 2 3 3 3 4 5
1 1 2 3 3 3 3 4 3 4 7 10 11 11 10 9 9 8 7 7 6 6 6 5 5 5 4 3 2 2 2 3 3 3 3 3 2 1 1 1 1 2 2 2 3 3 3 4 4
2 2 3 2 1 2 2 3 4 5 8 9 10 10 9 9 8 7 7 6 7 7 6 5 5 5 4 3 3 2 2 2 2 2 3 3 3 2 2 2 2 2 2 2 3 3 3 4 4
5 5 3 3 1 1 4 3 6 6 7 8 9 9 9 8 8 7 6 6 6 6 6 5 4 5 4 3 2 2 2 2 2 2 3 3 3 3 3 3 2 2 2 2 2 3 3 3 3
6 3 1 3 1 0 2 2 6 7 6 7 8 9 9 9 8 7 7 7 6 6 6 6 4 4 4 4 3 2 2 2 2 2 2 2 3 4 4 3 2 3 2 2 3 1 2 2 3
2 2 2 1 1 2 2 0 4 6 6 6 7 8 9 9 9 8 8 7 6 6 6 6 5 5 4 4 3 2 2 2 3 2 2 3 3 4 4 3 3 3 2 2 2 2 2 2 2
4 4 3 1 0 3 3 2 3 6 7 7 7 8 9 9 9 9 9 8 7 6 6 6 5 5 4 3 3 3 3 2 2 2 2 3 3 3 4 4 3 3 3 3 3 2 2 2 1
6 6 4 2 1 3 4 4 3 5 7 7 8 9 9 9 10 10 10 9 8 8 7 7 6 6 5 4 3 3 2 2 2 2 2 3 3 3 4 4 4 3 2 2 2 2 2 1 0
7 7 6 4 3 5 6 5 5 6 6 7 8 9 10 10 11 11 11 10 9 9 8 7 7 6 5 4 3 3 3 3 2 2 2 2 3 3 3 3 3 2 2 2 2 2 3 2 1
7 4 6 6 8 5 5 6 4 6 7 7 8 9 10 10 10 10 11 11 10 9 8 7 7 6 5 5 4 4 4 3 2 2 1 1 1 2 2 2 2 2 2 1 3 2 2 3 2
5 3 5 7 8 9 6 7 3 5 6 7 8 9 10 11 11 11 11 11 10 9 8 8 7 7 6 6 5 5 4 3 2 2 1 1 1 1 2 2 2 2 2 2 2 2 3 3 3
4 5 6 8 9 9 6 8 5 3 5 5 7 9 9 10 10 11 10 10 10 9 9 9 8 8 7 6 6 6 5 4 3 2 1 2 1 1 1 2 2 2 2 2 3 3 3 3 3
8 8 7 7 8 6 3 7 5 2 3 4 5 7 9 9 9 10 10 10 10 10 10 9 9 8 7 7 7 6 6 4 4 3 2 2 2 2 1 2 2 2 2 3 3 3 4 4 4
9 10 8 8 7 5 5 6 3 1 2 3 4 5 7 9 9 9 10 10 9 10 10 9 9 9 8 7 6 5 5 4 4 3 3 3 2 2 2 2 2 3 3 3 3 4 3 3 4
8 9 9 10 10 9 6 5 5 4 4 4 5 5 6 7 8 8 9 9 9 9 9 9 9 8 8 7 6 5 5 4 4 3 4 3 2 2 2 2 2 2 2 3 3 3 3 3 4
8 8 7 9 8 10 8 8 5 5 5 4 4 4 4 5 6 7 7 8 8 9 9 8 9 8 7 7 7 6 6 5 4 4 3 3 2 2 2 3 3 2 2 2 3 3 3 3 3
8 9 9 9 9 10 9 5 0 2 3 4 4 3 4 5 6 6 6 7 7 7 8 8 8 8 7 7 7 6 6 5 5 4 4 3 3 3 3 3 3 3 2 2 3 3 3 4 4
9 10 11 10 9 10 11 6 3 1 1 2 2 3 2 3 5 5 5 6 7 7 7 8 7 8 7 7 7 6 5 5 5 4 4 4 3 4 3 3 3 3 3 3 4 4 4 5 5
Wind_Direction
177 182 207 236 223 82 65 61 62 64 59 56 58 61 61 47 39 76 90 103 108 116 118 126 129 126 127 127 127 126 128 129 130 133 133 133 133 133 132 130 131 129 128 128 129 128 129 129 130
174 185 229 243 48 75 66 58 60 61 72 77 69 66 65 62 58 93 107 110 119 117 119 118 122 126 127 128 129 128 128 129 130 133 134 134 134 134 132 132 132 131 131 131 132 132 134 135 134
183 225 266 23 56 61 65 61 66 76 78 74 73 58 54 65 78 97 109 124 122 118 119 119 127 128 127 129 131 129 129 129 130 132 133 135 135 136 135 135 134 135 134 135 135 137 139 139 137
214 233 234 68 70 62 63 67 75 82 79 70 81 81 74 62 82 105 119 126 121 119 122 122 128 127 127 129 130 131 130 130 131 132 134 135 136 137 140 140 140 139 139 139 141 143 144 144 143
244 261 97 77 71 68 65 66 71 72 74 77 80 86 80 74 94 111 124 124 119 117 120 124 125 124 124 127 131 134 134 133 134 134 134 137 139 140 143 146 146 145 144 145 147 149 151 150 148
252 251 68 71 74 74 73 70 74 78 85 86 86 89 83 100 109 118 124 124 118 117 120 124 126 125 126 127 131 130 134 135 135 135 135 138 140 144 145 149 150 151 152 155 156 158 162 164 166
323 43 66 70 75 76 66 64 62 75 82 80 85 90 106 119 122 124 123 121 118 119 120 127 133 134 134 129 127 128 129 133 136 136 137 139 146 150 150 153 154 158 159 162 165 170 173 175 178
307 31 73 68 66 73 77 75 63 63 74 82 86 96 120 134 134 131 128 125 120 120 122 125 129 129 137 134 129 129 132 135 135 138 140 146 155 157 161 165 165 167 167 170 173 178 181 181 184
272 64 65 57 58 75 88 92 82 79 97 85 73 82 115 135 139 136 132 129 128 125 123 120 125 130 134 133 135 142 143 144 148 144 144 161 160 157 166 151 170 175 176 179 182 186 191 194 191
307 56 59 50 55 77 87 91 110 120 108 103 100 100 121 138 145 143 140 139 137 133 127 121 124 127 131 128 135 144 149 146 151 139 146 152 153 166 158 154 183 188 188 192 192 196 199 211 192
30 48 55 62 63 74 95 102 113 128 104 115 129 131 139 144 149 145 139 136 132 133 127 126 123 122 124 127 135 138 140 142 150 146 152 155 167 163 162 160 173 187 192 193 188 199 206 208 203
61 55 50 60 71 81 86 104 106 82 71 109 134 140 145 149 148 144 139 135 130 129 129 128 127 127 126 130 137 145 147 150 154 156 175 166 149 154 140 153 177 188 185 190 210 204 212 226 214
82 56 64 82 93 90 103 99 94 89 96 122 133 141 146 147 144 140 136 133 133 135 135 131 133 138 144 148 169 155 153 160 162 165 175 191 175 149 151 150 202 221 214 208 219 222 212 223 216
33 55 108 106 101 120 108 105 106 100 122 134 141 146 149 149 147 144 146 145 144 142 140 138 144 146 149 157 168 179 169 168 171 175 178 200 207 178 232 217 221 234 234 240 241 233 223 223 221
211 189 148 124 126 133 180 115 102 129 139 142 149 150 150 152 152 152 153 154 152 149 148 147 152 149 151 161 179 179 191 184 180 181 190 206 217 212 229 237 230 233 238 233 236 238 237 225 221
217 219 177 119 113 156 259 76 112 144 153 151 155 157 158 160 160 158 159 159 155 153 153 158 156 153 161 169 191 190 194 195 197 208 208 213 224 225 233 239 234 237 242 251 241 235 236 234 231
214 227 175 127 129 235 264 66 126 157 167 164 164 166 167 166 169 167 168 165 163 162 160 162 162 165 167 172 184 196 206 222 219 221 222 224 235 238 243 241 246 242 239 248 255 243 246 242 244
238 251 233 205 125 257 260 84 146 171 184 179 174 175 176 178 177 174 175 171 166 162 162 167 171 171 176 178 184 201 213 221 223 230 235 242 243 243 251 239 227 241 240 241 238 236 240 253 260
276 265 261 251 70 270 272 266 194 182 194 191 188 184 187 189 180 176 177 178 173 170 169 174 179 173 179 186 199 200 205 217 226 233 233 251 259 250 249 263 233 240 244 245 237 234 235 242 278
250 254 248 209 192 277 283 273 208 185 203 204 201 194 193 190 183 182 182 184 184 182 184 183 185 184 190 188 199 209 221 224 229 249 238 256 259 251 237 238 244 234 237 230 231 225 254 257 158
244 260 268 264 247 235 267 244 201 183 193 201 207 203 198 195 191 186 187 189 189 190 192 192 188 190 197 198 201 197 197 221 217 231 236 266 273 265 267 244 251 246 243 228 232 236 241 244 224
247 265 266 256 259 265 263 280 198 190 192 200 202 201 200 196 193 190 189 193 196 194 193 192 190 193 198 199 206 207 212 221 230 238 232 249 267 265 261 250 240 246 256 242 242 230 239 236 241
271 273 254 257 262 269 250 274 227 191 215 209 204 202 200 197 194 191 190 191 197 195 194 190 189 195 198 202 204 213 224 230 232 223 214 253 243 261 260 249 250 247 258 256 253 240 247 242 247
208 220 227 241 252 255 258 267 262 222 238 220 203 203 200 197 196 193 189 186 192 196 195 190 188 196 198 201 205 212 222 230 238 238 244 240 245 256 271 268 277 274 272 257 244 239 233 247 250
221 242 245 238 235 249 235 259 269 266 247 233 212 200 196 192 192 190 189 187 190 193 196 194 190 195 199 203 208 211 216 218 225 239 232 253 270 274 293 291 282 283 273 255 248 232 238 239 242
229 248 259 269 269 259 216 251 260 220 221 215 202 187 185 187 190 190 188 188 190 192 195 197 194 195 197 200 204 210 213 219 220 228 250 245 264 279 295 281 273 272 272 261 250 247 237 234 240
231 240 264 269 270 271 256 252 234 206 205 199 187 178 180 184 188 189 187 187 189 192 195 196 195 193 193 194 195 201 207 220 225 228 237 247 250 258 261 270 269 267 259 258 261 260 257 252 250
251 250 246 255 263 266 257 250 247 210 211 198 184 175 167 172 177 180 183 186 189 192 193 194 193 191 191 192 196 196 202 208 215 227 231 245 249 259 264 266 266 261 255 250 255 258 259 260 262
207 221 239 254 260 266 269 262 96 206 205 205 189 172 167 173 175 179 184 188 188 187 187 187 189 190 193 197 198 204 205 206 211 218 224 229 241 243 249 255 258 258 259 255 252 258 256 259 261
239 238 234 243 248 255 271 268 109 153 188 205 201 178 174 177 178 182 185 183 185 184 181 181 188 192 193 194 197 202 206 209 214 216 220 227 238 245 245 249 250 253 253 253 254 259 260 260 259
Height
1503 1503 1504 1505 1499 1493 1497 1496 1494 1496 1499 1502 1502 1502 1502 1504 1507 1516 1518 1517 1517 1517 1515 1511 1513 1518 1521 1523 1524 1525 1527 1528 1529 1531 1532 1534 1536 1537 1539 1541 1542 1543 1545 1546 1548 1549 1550 1551 1553
1505 1505 1506 1503 1492 1499 1503 1497 1498 1500 1503 1505 1505 1505 1505 1509 1513 1516 1518 1518 1519 1519 1519 1517 1518 1521 1523 1525 1526 1528 1529 1530 1531 1533 1534 1536 1538 1540 1541 1542 1544 1545 1546 1548 1549 1551 1552 1553 1554
1506 1505 1506 1495 1494 1500 1504 1499 1501 1503 1505 1505 1506 1508 1510 1514 1517 1519 1520 1520 1521 1522 1522 1521 1522 1524 1526 1527 1529 1530 1531 1532 1533 1534 1536 1538 1540 1541 1542 1544 1545 1546 1548 1549 1551 1552 1553 1554 1555
1507 1507 1503 1494 1498 1498 1499 1500 1502 1503 1506 1507 1507 1510 1515 1519 1520 1521 1521 1522 1524 1524 1525 1524 1525 1527 1528 1529 1530 1532 1533 1534 1535 1537 1538 1540 1541 1543 1544 1545 1546 1548 1549 1550 1552 1553 1554 1555 1556
1508 1504 1495 1495 1498 1499 1500 1502 1504 1504 1506 1509 1509 1512 1518 1521 1522 1522 1523 1525 1526 1526 1527 1527 1528 1529 1530 1531 1532 1533 1535 1536 1537 1538 1540 1541 1543 1544 1545 1547 1548 1549 1550 1551 1552 1554 1555 1556 1557
1507 1498 1496 1501 1501 1500 1502 1504 1505 1506 1508 1510 1511 1513 1520 1523 1523 1524 1525 1527 1528 1528 1529 1529 1530 1531 1532 1533 1534 1535 1536 1537 1539 1540 1541 1543 1544 1545 1547 1548 1549 1549 1550 1552 1553 1554 1555 1556 1557
1505 1495 1497 1498 1500 1502 1504 1506 1506 1506 1509 1512 1514 1515 1521 1524 1525 1526 1527 1528 1529 1531 1531 1532 1533 1533 1534 1535 1536 1537 1538 1539 1540 1541 1543 1544 1545 1547 1548 1549 1549 1550 1551 1552 1553 1554 1555 1556 1556
1506 1497 1495 1497 1500 1504 1506 1507 1509 1509 1511 1515 1516 1516 1520 1524 1525 1527 1528 1529 1531 1532 1533 1534 1535 1535 1536 1537 1537 1538 1539 1540 1541 1543 1544 1545 1546 1547 1548 1549 1549 1550 1551 1552 1553 1554 1555 1556 1556
1506 1497 1499 1500 1502 1504 1506 1508 1511 1512 1514 1516 1518 1519 1521 1524 1526 1527 1529 1530 1532 1533 1535 1536 1537 1537 1538 1539 1539 1539 1540 1541 1543 1544 1545 1546 1548 1549 1549 1549 1549 1550 1551 1552 1553 1554 1554 1555 1556
1504 1498 1502 1501 1501 1503 1506 1508 1511 1512 1513 1517 1519 1521 1523 1525 1527 1528 1529 1531 1533 1534 1536 1537 1538 1538 1539 1540 1540 1541 1542 1542 1544 1545 1546 1547 1548 1549 1549 1549 1550 1550 1551 1551 1552 1553 1554 1555 1557
1503 1501 1501 1502 1504 1505 1506 1509 1511 1510 1511 1516 1519 1522 1524 1526 1528 1529 1530 1532 1534 1536 1537 1538 1539 1539 1540 1541 1541 1542 1543 1543 1544 1545 1546 1547 1548 1549 1549 1550 1550 1550 1551 1551 1551 1552 1554 1555 1555
1504 1503 1504 1505 1506 1507 1507 1509 1511 1512 1514 1517 1519 1522 1524 1526 1528 1530 1531 1533 1535 1536 1537 1538 1539 1539 1540 1541 1542 1543 1544 1544 1545 1546 1546 1547 1548 1548 1549 1549 1549 1550 1550 1550 1551 1551 1552 1553 1554
1504 1505 1506 1506 1507 1507 1509 1510 1511 1514 1516 1517 1519 1522 1524 1526 1529 1531 1532 1534 1536 1537 1538 1539 1539 1539 1540 1541 1542 1544 1544 1545 1546 1546 1546 1547 1548 1548 1549 1549 1549 1550 1550 1550 1550 1550 1551 1551 1552
1505 1505 1505 1506 1506 1508 1508 1510 1512 1515 1516 1518 1520 1522 1525 1527 1529 1531 1533 1534 1536 1537 1538 1539 1540 1540 1541 1541 1542 1543 1544 1545 1546 1546 1547 1547 1548 1548 1548 1548 1548 1549 1549 1549 1549 1549 1550 1550 1551
1506 1504 1503 1504 1505 1506 1507 1508 1511 1515 1517 1518 1520 1523 1525 1527 1529 1531 1533 1535 1536 1537 1538 1539 1540 1540 1541 1542 1543 1544 1544 1545 1546 1546 1546 1546 1547 1547 1547 1547 1548 1548 1548 1548 1548 1548 1548 1549 1549
1502 1500 1502 1503 1504 1506 1506 1509 1511 1515 1516 1518 1520 1523 1525 1527 1529 1531 1533 1535 1536 1537 1538 1539 1540 1541 1541 1542 1542 1544 1544 1545 1545 1546 1546 1546 1546 1546 1546 1547 1547 1546 1547 1547 1547 1547 1547 1547 1548
1499 1501 1502 1502 1503 1503 1503 1506 1510 1514 1515 1517 1520 1522 1525 1527 1529 1530 1532 1534 1535 1536 1537 1538 1540 1540 1541 1542 1542 1543 1543 1544 1545 1545 1545 1545 1545 1545 1545 1545 1545 1545 1546 1546 1546 1546 1546 1546 1546
1503 1501 1502 1502 1501 1502 1501 1503 1507 1512 1513 1515 1518 1521 1523 1525 1527 1529 1531 1533 1534 1535 1536 1537 1539 1540 1540 1541 1542 1542 1543 1544 1544 1544 1544 1544 1544 1543 1543 1544 1543 1544 1545 1544 1545 1545 1545 1545 1545
1498 1500 1502 1500 1500 1501 1501 1502 1503 1509 1511 1513 1516 1519 1521 1523 1526 1528 1529 1531 1533 1534 1535 1536 1538 1539 1539 1540 1541 1542 1542 1543 1543 1543 1543 1542 1542 1542 1541 1542 1542 1542 1543 1543 1543 1544 1544 1544 1544
1499 1501 1500 1499 1500 1501 1500 1500 1500 1505 1508 1511 1514 1516 1519 1521 1524 1526 1528 1529 1531 1532 1533 1534 1536 1537 1538 1539 1540 1540 1541 1542 1542 1542 1541 1541 1541 1540 1540 1539 1540 1541 1541 1541 1541 1542 1542 1543 1542
1499 1500 1499 1501 1500 1499 1501 1501 1499 1501 1506 1509 1511 1513 1516 1518 1521 1523 1525 1527 1529 1530 1531 1533 1534 1535 1537 1538 1539 1540 1540 1541 1541 1541 1540 1540 1539 1538 1537 1537 1538 1538 1539 1540 1539 1540 1541 1541 1541
1500 1496 1498 1500 1502 1499 1501 1507 1497 1497 1501 1504 1507 1510 1512 1515 1518 1521 1523 1525 1526 1528 1530 1531 1532 1533 1535 1536 1537 1538 1539 1539 1539 1539 1539 1539 1538 1537 1536 1536 1536 1536 1537 1538 1538 1538 1538 1539 1540
1497 1496 1497 1498 1499 1501 1498 1504 1496 1493 1497 1498 1502 1506 1509 1512 1515 1518 1520 1522 1524 1526 1528 1529 1530 1531 1533 1534 1535 1536 1537 1538 1538 1538 1538 1538 1537 1536 1536 1535 1535 1535 1536 1536 1536 1536 1536 1537 1537
1497 1499 1498 1496 1496 1508 1500 1504 1500 1490 1492 1493 1497 1502 1506 1509 1512 1515 1518 1520 1522 1524 1526 1527 1528 1529 1531 1532 1533 1534 1535 1536 1536 1536 1537 1537 1537 1536 1535 1535 1534 1533 1534 1533 1533 1534 1534 1535 1535
1497 1500 1507 1510 1508 1505 1495 1500 1495 1486 1488 1491 1494 1499 1503 1506 1509 1512 1515 1517 1519 1521 1523 1524 1525 1526 1528 1529 1531 1532 1533 1534 1534 1535 1535 1535 1535 1535 1534 1533 1532 1532 1531 1531 1531 1532 1532 1532 1532
1494 1495 1509 1517 1510 1499 1496 1498 1488 1485 1489 1492 1494 1497 1501 1504 1507 1509 1512 1514 1516 1518 1520 1521 1522 1524 1525 1527 1528 1530 1531 1532 1532 1533 1533 1533 1533 1533 1532 1531 1530 1529 1529 1529 1529 1530 1530 1530 1530
1493 1492 1487 1495 1497 1502 1494 1489 1484 1485 1488 1491 1493 1496 1499 1502 1504 1507 1510 1512 1514 1515 1517 1518 1519 1521 1522 1524 1525 1527 1528 1529 1530 1530 1530 1531 1530 1530 1529 1529 1528 1527 1526 1526 1526 1527 1527 1527 1527
1489 1487 1491 1495 1511 1511 1499 1493 1488 1486 1486 1488 1491 1495 1498 1500 1503 1505 1508 1510 1512 1513 1515 1516 1517 1519 1520 1522 1523 1525 1525 1526 1527 1527 1528 1528 1528 1527 1527 1526 1526 1525 1524 1524 1524 1525 1524 1524 1524
1492 1492 1492 1491 1493 1505 1505 1493 1477 1482 1484 1487 1490 1494 1497 1499 1501 1503 1506 1508 1509 1511 1512 1513 1515 1517 1518 1520 1521 1522 1523 1524 1524 1525 1525 1525 1525 1525 1524 1524 1523 1523 1522 1522 1521 1522 1522 1522 1521
1483 1484 1488 1497 1499 1496 1496 1491 1477 1480 1483 1486 1489 1493 1496 1498 1499 1501 1503 1505 1507 1509 1510 1511 1513 1515 1516 1517 1518 1519 1520 1521 1522 1522 1522 1522 1522 1522 1522 1521 1521 1520 1520 1520 1519 1519 1518 1518 1518